Year,Month,Day,Hour,Minute,Value (Times are PST for temperature in C)
2015,06,30,00,00,19.40
2015,06,30,00,01,19.40
2015,06,30,00,02,19.40
2015,06,30,00,03,19.50
2015,06,30,00,04,19.50
2015,06,30,00,05,19.50
2015,06,30,00,06,19.60
2015,06,30,00,07,19.60
2015,06,30,00,08,19.60
2015,06,30,00,09,19.70
2015,06,30,00,10,19.70
2015,06,30,00,11,19.70
2015,06,30,00,12,19.80
2015,06,30,00,13,19.80
2015,06,30,00,14,19.80
2015,06,30,00,15,19.80
2015,06,30,00,16,19.80
2015,06,30,00,17,19.80
2015,06,30,00,18,19.80
2015,06,30,00,19,19.80
2015,06,30,00,20,19.80
2015,06,30,00,21,19.90
2015,06,30,00,22,19.90
2015,06,30,00,23,19.90
2015,06,30,00,24,19.90
2015,06,30,00,25,19.90
2015,06,30,00,26,19.90
2015,06,30,00,27,19.90
2015,06,30,00,28,19.90
2015,06,30,00,29,19.90
2015,06,30,00,30,19.90
2015,06,30,00,31,19.90
2015,06,30,00,32,19.90
2015,06,30,00,33,19.90
2015,06,30,00,34,19.80
2015,06,30,00,35,19.80
2015,06,30,00,36,19.80
2015,06,30,00,37,19.80
2015,06,30,00,38,19.80
2015,06,30,00,39,19.80
2015,06,30,00,40,19.80
2015,06,30,00,41,19.80
2015,06,30,00,42,19.80
2015,06,30,00,43,19.80
2015,06,30,00,44,19.80
2015,06,30,00,45,19.80
2015,06,30,00,46,19.80
2015,06,30,00,47,19.80
2015,06,30,00,48,19.70
2015,06,30,00,49,19.70
2015,06,30,00,50,19.70
2015,06,30,00,51,19.70
2015,06,30,00,52,19.70
2015,06,30,00,53,19.70
2015,06,30,00,54,19.60
2015,06,30,00,55,19.60
2015,06,30,00,56,19.60
2015,06,30,00,57,19.60
2015,06,30,00,58,19.60
2015,06,30,00,59,19.60
2015,06,30,01,00,19.60
2015,06,30,01,01,19.60
2015,06,30,01,02,19.50
2015,06,30,01,03,19.50
2015,06,30,01,04,19.50
2015,06,30,01,05,19.50
2015,06,30,01,06,19.40
2015,06,30,01,07,19.40
2015,06,30,01,08,19.40
2015,06,30,01,09,19.30
2015,06,30,01,10,19.30
2015,06,30,01,11,19.20
2015,06,30,01,12,19.10
2015,06,30,01,13,19.10
2015,06,30,01,14,19.00
2015,06,30,01,15,19.00
2015,06,30,01,16,18.90
2015,06,30,01,17,18.90
2015,06,30,01,18,18.80
2015,06,30,01,19,18.80
2015,06,30,01,20,18.80
2015,06,30,01,21,18.70
2015,06,30,01,22,18.70
2015,06,30,01,23,18.70
2015,06,30,01,24,18.60
2015,06,30,01,25,18.60
2015,06,30,01,26,18.60
2015,06,30,01,27,18.60
2015,06,30,01,28,18.50
2015,06,30,01,29,18.50
2015,06,30,01,30,18.40
2015,06,30,01,31,18.40
2015,06,30,01,32,18.40
2015,06,30,01,33,18.40
2015,06,30,01,34,18.30
2015,06,30,01,35,18.30
2015,06,30,01,36,18.30
2015,06,30,01,37,18.30
2015,06,30,01,38,18.30
2015,06,30,01,39,18.20
2015,06,30,01,40,18.20
2015,06,30,01,41,18.20
2015,06,30,01,42,18.10
2015,06,30,01,43,18.10
2015,06,30,01,44,18.10
2015,06,30,01,45,18.10
2015,06,30,01,46,18.10
2015,06,30,01,47,18.00
2015,06,30,01,48,18.00
2015,06,30,01,49,18.00
2015,06,30,01,50,18.00
2015,06,30,01,51,18.00
2015,06,30,01,52,18.00
2015,06,30,01,53,17.90
2015,06,30,01,54,17.90
2015,06,30,01,55,17.90
2015,06,30,01,56,17.90
2015,06,30,01,57,17.90
2015,06,30,01,58,17.90
2015,06,30,01,59,17.90
2015,06,30,02,00,17.90
2015,06,30,02,01,17.90
2015,06,30,02,02,17.90
2015,06,30,02,03,17.90
2015,06,30,02,04,17.90
2015,06,30,02,05,17.90
2015,06,30,02,06,17.90
2015,06,30,02,07,17.90
2015,06,30,02,08,17.90
2015,06,30,02,09,17.80
2015,06,30,02,10,17.80
2015,06,30,02,11,17.80
2015,06,30,02,12,17.80
2015,06,30,02,13,17.80
2015,06,30,02,14,17.80
2015,06,30,02,15,17.80
2015,06,30,02,16,17.80
2015,06,30,02,17,17.80
2015,06,30,02,18,17.80
2015,06,30,02,19,17.80
2015,06,30,02,20,17.80
2015,06,30,02,21,17.80
2015,06,30,02,22,17.90
2015,06,30,02,23,17.90
2015,06,30,02,24,17.90
2015,06,30,02,25,17.90
2015,06,30,02,26,17.90
2015,06,30,02,27,17.90
2015,06,30,02,28,17.90
2015,06,30,02,29,17.90
2015,06,30,02,30,17.90
2015,06,30,02,31,17.90
2015,06,30,02,32,18.00
2015,06,30,02,33,18.00
2015,06,30,02,34,18.00
2015,06,30,02,35,18.00
2015,06,30,02,36,18.00
2015,06,30,02,37,18.10
2015,06,30,02,38,18.10
2015,06,30,02,39,18.10
2015,06,30,02,40,18.10
2015,06,30,02,41,18.10
2015,06,30,02,42,18.10
2015,06,30,02,43,18.10
2015,06,30,02,44,18.10
2015,06,30,02,45,18.20
2015,06,30,02,46,18.20
2015,06,30,02,47,18.20
2015,06,30,02,48,18.20
2015,06,30,02,49,18.20
2015,06,30,02,50,18.20
2015,06,30,02,51,18.20
2015,06,30,02,52,18.20
2015,06,30,02,53,18.10
2015,06,30,02,54,18.10
2015,06,30,02,55,18.10
2015,06,30,02,56,18.10
2015,06,30,02,57,18.10
2015,06,30,02,58,18.10
2015,06,30,02,59,18.10
2015,06,30,03,00,18.00
2015,06,30,03,01,18.00
2015,06,30,03,02,18.00
2015,06,30,03,03,18.00
2015,06,30,03,04,18.00
2015,06,30,03,05,18.00
2015,06,30,03,06,18.00
2015,06,30,03,07,18.00
2015,06,30,03,08,18.00
2015,06,30,03,09,17.90
2015,06,30,03,10,17.90
2015,06,30,03,11,17.90
2015,06,30,03,12,17.90
2015,06,30,03,13,17.90
2015,06,30,03,14,17.90
2015,06,30,03,15,17.90
2015,06,30,03,16,17.90
2015,06,30,03,17,17.90
2015,06,30,03,18,17.90
2015,06,30,03,19,17.90
2015,06,30,03,20,17.80
2015,06,30,03,21,17.80
2015,06,30,03,22,17.80
2015,06,30,03,23,17.80
2015,06,30,03,24,17.80
2015,06,30,03,25,17.80
2015,06,30,03,26,17.80
2015,06,30,03,27,17.80
2015,06,30,03,28,17.70
2015,06,30,03,29,17.70
2015,06,30,03,30,17.70
2015,06,30,03,31,17.70
2015,06,30,03,32,17.70
2015,06,30,03,33,17.60
2015,06,30,03,34,17.60
2015,06,30,03,35,17.60
2015,06,30,03,36,17.60
2015,06,30,03,37,17.60
2015,06,30,03,38,17.60
2015,06,30,03,39,17.60
2015,06,30,03,40,17.60
2015,06,30,03,41,17.60
2015,06,30,03,42,17.60
2015,06,30,03,43,17.60
2015,06,30,03,44,17.70
2015,06,30,03,45,17.70
2015,06,30,03,46,17.70
2015,06,30,03,47,17.70
2015,06,30,03,48,17.70
2015,06,30,03,49,17.70
2015,06,30,03,50,17.70
2015,06,30,03,51,17.70
2015,06,30,03,52,17.70
2015,06,30,03,53,17.60
2015,06,30,03,54,17.60
2015,06,30,03,55,17.60
2015,06,30,03,56,17.60
2015,06,30,03,57,17.60
2015,06,30,03,58,17.60
2015,06,30,03,59,17.60
2015,06,30,04,00,17.50
2015,06,30,04,01,17.50
2015,06,30,04,02,17.50
2015,06,30,04,03,17.40
2015,06,30,04,04,17.40
2015,06,30,04,05,17.40
2015,06,30,04,06,17.30
2015,06,30,04,07,17.30
2015,06,30,04,08,17.20
2015,06,30,04,09,17.20
2015,06,30,04,10,17.20
2015,06,30,04,11,17.20
2015,06,30,04,12,17.10
2015,06,30,04,13,17.10
2015,06,30,04,14,17.10
2015,06,30,04,15,17.10
2015,06,30,04,16,17.00
2015,06,30,04,17,17.00
2015,06,30,04,18,16.90
2015,06,30,04,19,16.90
2015,06,30,04,20,16.90
2015,06,30,04,21,16.90
2015,06,30,04,22,16.80
2015,06,30,04,23,16.80
2015,06,30,04,24,16.80
2015,06,30,04,25,16.70
2015,06,30,04,26,16.70
2015,06,30,04,27,16.70
2015,06,30,04,28,16.70
2015,06,30,04,29,16.70
2015,06,30,04,30,16.60
2015,06,30,04,31,16.60
2015,06,30,04,32,16.50
2015,06,30,04,33,16.50
2015,06,30,04,34,16.40
2015,06,30,04,35,16.30
2015,06,30,04,36,16.20
2015,06,30,04,37,16.20
2015,06,30,04,38,16.10
2015,06,30,04,39,16.00
2015,06,30,04,40,16.00
2015,06,30,04,41,15.90
2015,06,30,04,42,15.90
2015,06,30,04,43,15.80
2015,06,30,04,44,15.80
2015,06,30,04,45,15.70
2015,06,30,04,46,15.70
2015,06,30,04,47,15.70
2015,06,30,04,48,15.60
2015,06,30,04,49,15.60
2015,06,30,04,50,15.60
2015,06,30,04,51,15.50
2015,06,30,04,52,15.50
2015,06,30,04,53,15.40
2015,06,30,04,54,15.40
2015,06,30,04,55,15.30
2015,06,30,04,56,15.30
2015,06,30,04,57,15.20
2015,06,30,04,58,15.20
2015,06,30,04,59,15.20
2015,06,30,05,00,15.10
2015,06,30,05,01,15.10
2015,06,30,05,02,15.10
2015,06,30,05,03,15.10
2015,06,30,05,04,15.10
2015,06,30,05,05,15.10
2015,06,30,05,06,15.10
2015,06,30,05,07,15.10
2015,06,30,05,08,15.10
2015,06,30,05,09,15.20
2015,06,30,05,10,15.20
2015,06,30,05,11,15.20
2015,06,30,05,12,15.20
2015,06,30,05,13,15.20
2015,06,30,05,14,15.30
2015,06,30,05,15,15.30
2015,06,30,05,16,15.30
2015,06,30,05,17,15.30
2015,06,30,05,18,15.30
2015,06,30,05,19,15.20
2015,06,30,05,20,15.20
2015,06,30,05,21,15.20
2015,06,30,05,22,15.20
2015,06,30,05,23,15.20
2015,06,30,05,24,15.20
2015,06,30,05,25,15.20
2015,06,30,05,26,15.20
2015,06,30,05,27,15.20
2015,06,30,05,28,15.20
2015,06,30,05,29,15.30
2015,06,30,05,30,15.30
2015,06,30,05,31,15.30
2015,06,30,05,32,15.30
2015,06,30,05,33,15.30
2015,06,30,05,34,15.30
2015,06,30,05,35,15.30
2015,06,30,05,36,15.30
2015,06,30,05,37,15.30
2015,06,30,05,38,15.30
2015,06,30,05,39,15.30
2015,06,30,05,40,15.30
2015,06,30,05,41,15.40
2015,06,30,05,42,15.40
2015,06,30,05,43,15.40
2015,06,30,05,44,15.40
2015,06,30,05,45,15.40
2015,06,30,05,46,15.40
2015,06,30,05,47,15.40
2015,06,30,05,48,15.40
2015,06,30,05,49,15.40
2015,06,30,05,50,15.40
2015,06,30,05,51,15.40
2015,06,30,05,52,15.40
2015,06,30,05,53,15.50
2015,06,30,05,54,15.40
2015,06,30,05,55,15.40
2015,06,30,05,56,15.40
2015,06,30,05,57,15.40
2015,06,30,05,58,15.40
2015,06,30,05,59,15.40
2015,06,30,06,00,15.40
2015,06,30,06,01,15.40
2015,06,30,06,02,15.40
2015,06,30,06,03,15.40
2015,06,30,06,04,15.40
2015,06,30,06,05,15.40
2015,06,30,06,06,15.40
2015,06,30,06,07,15.40
2015,06,30,06,08,15.40
2015,06,30,06,09,15.40
2015,06,30,06,10,15.40
2015,06,30,06,11,15.30
2015,06,30,06,12,15.30
2015,06,30,06,13,15.30
2015,06,30,06,14,15.30
2015,06,30,06,15,15.30
2015,06,30,06,16,15.30
2015,06,30,06,17,15.30
2015,06,30,06,18,15.30
2015,06,30,06,19,15.20
2015,06,30,06,20,15.20
2015,06,30,06,21,15.20
2015,06,30,06,22,15.20
2015,06,30,06,23,15.20
2015,06,30,06,24,15.20
2015,06,30,06,25,15.20
2015,06,30,06,26,15.20
2015,06,30,06,27,15.10
2015,06,30,06,28,15.10
2015,06,30,06,29,15.10
2015,06,30,06,30,15.10
2015,06,30,06,31,15.10
2015,06,30,06,32,15.10
2015,06,30,06,33,15.10
2015,06,30,06,34,15.00
2015,06,30,06,35,15.00
2015,06,30,06,36,15.00
2015,06,30,06,37,15.00
2015,06,30,06,38,14.90
2015,06,30,06,39,14.90
2015,06,30,06,40,14.90
2015,06,30,06,41,15.00
2015,06,30,06,42,14.90
2015,06,30,06,43,14.90
2015,06,30,06,44,15.00
2015,06,30,06,45,15.00
2015,06,30,06,46,15.00
2015,06,30,06,47,15.10
2015,06,30,06,48,15.10
2015,06,30,06,49,15.10
2015,06,30,06,50,15.10
2015,06,30,06,51,15.10
2015,06,30,06,52,15.10
2015,06,30,06,53,15.00
2015,06,30,06,54,15.00
2015,06,30,06,55,15.00
2015,06,30,06,56,14.90
2015,06,30,06,57,14.90
2015,06,30,06,58,14.90
2015,06,30,06,59,14.90
2015,06,30,07,00,14.90
2015,06,30,07,01,14.90
2015,06,30,07,02,14.80
2015,06,30,07,03,14.80
2015,06,30,07,04,14.80
2015,06,30,07,05,14.80
2015,06,30,07,06,14.80
2015,06,30,07,07,14.80
2015,06,30,07,08,14.80
2015,06,30,07,09,14.80
2015,06,30,07,10,14.70
2015,06,30,07,11,14.70
2015,06,30,07,12,14.70
2015,06,30,07,13,14.70
2015,06,30,07,14,14.60
2015,06,30,07,15,14.60
2015,06,30,07,16,14.60
2015,06,30,07,17,14.60
2015,06,30,07,18,14.60
2015,06,30,07,19,14.60
2015,06,30,07,20,14.60
2015,06,30,07,21,14.60
2015,06,30,07,22,14.70
2015,06,30,07,23,14.70
2015,06,30,07,24,14.70
2015,06,30,07,25,14.80
2015,06,30,07,26,14.80
2015,06,30,07,27,14.90
2015,06,30,07,28,14.90
2015,06,30,07,29,15.00
2015,06,30,07,30,15.00
2015,06,30,07,31,15.10
2015,06,30,07,32,15.10
2015,06,30,07,33,15.20
2015,06,30,07,34,15.20
2015,06,30,07,35,15.20
2015,06,30,07,36,15.20
2015,06,30,07,37,15.20
2015,06,30,07,38,15.20
2015,06,30,07,39,15.20
2015,06,30,07,40,15.20
2015,06,30,07,41,15.30
2015,06,30,07,42,15.30
2015,06,30,07,43,15.30
2015,06,30,07,44,15.30
2015,06,30,07,45,15.30
2015,06,30,07,46,15.30
2015,06,30,07,47,15.30
2015,06,30,07,48,15.30
2015,06,30,07,49,15.30
2015,06,30,07,50,15.30
2015,06,30,07,51,15.30
2015,06,30,07,52,15.40
2015,06,30,07,53,15.40
2015,06,30,07,54,15.40
2015,06,30,07,55,15.40
2015,06,30,07,56,15.50
2015,06,30,07,57,15.50
2015,06,30,07,58,15.60
2015,06,30,07,59,15.60
2015,06,30,08,00,15.60
2015,06,30,08,01,15.60
2015,06,30,08,02,15.60
2015,06,30,08,03,15.50
2015,06,30,08,04,15.50
2015,06,30,08,05,15.60
2015,06,30,08,06,15.60
2015,06,30,08,07,15.60
2015,06,30,08,08,15.70
2015,06,30,08,09,15.70
2015,06,30,08,10,15.70
2015,06,30,08,11,15.70
2015,06,30,08,12,15.70
2015,06,30,08,13,15.70
2015,06,30,08,14,15.70
2015,06,30,08,15,15.60
2015,06,30,08,16,15.60
2015,06,30,08,17,15.50
2015,06,30,08,18,15.40
2015,06,30,08,19,15.40
2015,06,30,08,20,15.30
2015,06,30,08,21,15.30
2015,06,30,08,22,15.30
2015,06,30,08,23,15.30
2015,06,30,08,24,15.30
2015,06,30,08,25,15.20
2015,06,30,08,26,15.20
2015,06,30,08,27,15.20
2015,06,30,08,28,15.20
2015,06,30,08,29,15.10
2015,06,30,08,30,15.10
2015,06,30,08,31,15.10
2015,06,30,08,32,15.10
2015,06,30,08,33,15.10
2015,06,30,08,34,15.10
2015,06,30,08,35,15.10
2015,06,30,08,36,15.20
2015,06,30,08,37,15.20
2015,06,30,08,38,15.20
2015,06,30,08,39,15.20
2015,06,30,08,40,15.20
2015,06,30,08,41,15.20
2015,06,30,08,42,15.20
2015,06,30,08,43,15.30
2015,06,30,08,44,15.30
2015,06,30,08,45,15.30
2015,06,30,08,46,15.40
2015,06,30,08,47,15.40
2015,06,30,08,48,15.50
2015,06,30,08,49,15.60
2015,06,30,08,50,15.60
2015,06,30,08,51,15.70
2015,06,30,08,52,15.80
2015,06,30,08,53,15.80
2015,06,30,08,54,15.90
2015,06,30,08,55,15.90
2015,06,30,08,56,16.00
2015,06,30,08,57,16.00
2015,06,30,08,58,16.10
2015,06,30,08,59,16.10
2015,06,30,09,00,16.10
2015,06,30,09,01,16.10
2015,06,30,09,02,16.20
2015,06,30,09,03,16.20
2015,06,30,09,04,16.20
2015,06,30,09,05,16.20
2015,06,30,09,06,16.30
2015,06,30,09,07,16.30
2015,06,30,09,08,16.30
2015,06,30,09,09,16.40
2015,06,30,09,10,16.50
2015,06,30,09,11,16.50
2015,06,30,09,12,16.60
2015,06,30,09,13,16.60
2015,06,30,09,14,16.60
2015,06,30,09,15,16.60
2015,06,30,09,16,16.70
2015,06,30,09,17,16.70
2015,06,30,09,18,16.70
2015,06,30,09,19,16.70
2015,06,30,09,20,16.70
2015,06,30,09,21,16.60
2015,06,30,09,22,16.70
2015,06,30,09,23,16.60
2015,06,30,09,24,16.60
2015,06,30,09,25,16.60
2015,06,30,09,26,16.60
2015,06,30,09,27,16.70
2015,06,30,09,28,16.70
2015,06,30,09,29,16.70
2015,06,30,09,30,16.80
2015,06,30,09,31,16.80
2015,06,30,09,32,16.80
2015,06,30,09,33,16.90
2015,06,30,09,34,17.00
2015,06,30,09,35,17.10
2015,06,30,09,36,17.20
2015,06,30,09,37,17.20
2015,06,30,09,38,17.30
2015,06,30,09,39,17.30
2015,06,30,09,40,17.30
2015,06,30,09,41,17.30
2015,06,30,09,42,17.30
2015,06,30,09,43,17.30
2015,06,30,09,44,17.30
2015,06,30,09,45,17.40
2015,06,30,09,46,17.50
2015,06,30,09,47,17.60
2015,06,30,09,48,17.60
2015,06,30,09,49,17.70
2015,06,30,09,50,17.70
2015,06,30,09,51,17.80
2015,06,30,09,52,17.80
2015,06,30,09,53,17.80
2015,06,30,09,54,17.90
2015,06,30,09,55,17.90
2015,06,30,09,56,17.90
2015,06,30,09,57,18.00
2015,06,30,09,58,18.10
2015,06,30,09,59,18.10
2015,06,30,10,00,18.20
2015,06,30,10,01,18.20
2015,06,30,10,02,18.30
2015,06,30,10,03,18.30
2015,06,30,10,04,18.40
2015,06,30,10,05,18.50
2015,06,30,10,06,18.60
2015,06,30,10,07,18.70
2015,06,30,10,08,18.80
2015,06,30,10,09,18.90
2015,06,30,10,10,19.00
2015,06,30,10,11,19.10
2015,06,30,10,12,19.20
2015,06,30,10,13,19.20
2015,06,30,10,14,19.30
2015,06,30,10,15,19.40
2015,06,30,10,16,19.50
2015,06,30,10,17,19.50
2015,06,30,10,18,19.60
2015,06,30,10,19,19.70
2015,06,30,10,20,19.70
2015,06,30,10,21,19.80
2015,06,30,10,22,19.80
2015,06,30,10,23,19.80
2015,06,30,10,24,19.70
2015,06,30,10,25,19.70
2015,06,30,10,26,19.70
2015,06,30,10,27,19.60
2015,06,30,10,28,19.60
2015,06,30,10,29,19.60
2015,06,30,10,30,19.60
2015,06,30,10,31,19.50
2015,06,30,10,32,19.40
2015,06,30,10,33,19.30
2015,06,30,10,34,19.20
2015,06,30,10,35,19.20
2015,06,30,10,36,19.20
2015,06,30,10,37,19.20
2015,06,30,10,38,19.30
2015,06,30,10,39,19.30
2015,06,30,10,40,19.40
2015,06,30,10,41,19.40
2015,06,30,10,42,19.50
2015,06,30,10,43,19.60
2015,06,30,10,44,19.60
2015,06,30,10,45,19.70
2015,06,30,10,46,19.80
2015,06,30,10,47,19.80
2015,06,30,10,48,19.90
2015,06,30,10,49,20.00
2015,06,30,10,50,20.10
2015,06,30,10,51,20.20
2015,06,30,10,52,20.20
2015,06,30,10,53,20.30
2015,06,30,10,54,20.20
2015,06,30,10,55,20.10
2015,06,30,10,56,20.10
2015,06,30,10,57,20.10
2015,06,30,10,58,20.00
2015,06,30,10,59,20.00
2015,06,30,11,00,19.90
2015,06,30,11,01,19.90
2015,06,30,11,02,19.80
2015,06,30,11,03,19.80
2015,06,30,11,04,19.70
2015,06,30,11,05,19.70
2015,06,30,11,06,19.70
2015,06,30,11,07,19.70
2015,06,30,11,08,19.70
2015,06,30,11,09,19.70
2015,06,30,11,10,19.80
2015,06,30,11,11,19.80
2015,06,30,11,12,19.90
2015,06,30,11,13,19.90
2015,06,30,11,14,20.00
2015,06,30,11,15,20.00
2015,06,30,11,16,20.10
2015,06,30,11,17,20.20
2015,06,30,11,18,20.20
2015,06,30,11,19,20.20
2015,06,30,11,20,20.20
2015,06,30,11,21,20.20
2015,06,30,11,22,20.10
2015,06,30,11,23,20.00
2015,06,30,11,24,19.80
2015,06,30,11,25,19.70
2015,06,30,11,26,19.60
2015,06,30,11,27,19.50
2015,06,30,11,28,19.50
2015,06,30,11,29,19.50
2015,06,30,11,30,19.40
2015,06,30,11,31,19.40
2015,06,30,11,32,19.40
2015,06,30,11,33,19.40
2015,06,30,11,34,19.40
2015,06,30,11,35,19.40
2015,06,30,11,36,19.40
2015,06,30,11,37,19.50
2015,06,30,11,38,19.40
2015,06,30,11,39,19.40
2015,06,30,11,40,19.30
2015,06,30,11,41,19.20
2015,06,30,11,42,19.20
2015,06,30,11,43,19.20
2015,06,30,11,44,19.20
2015,06,30,11,45,19.30
2015,06,30,11,46,19.30
2015,06,30,11,47,19.30
2015,06,30,11,48,19.40
2015,06,30,11,49,19.50
2015,06,30,11,50,19.50
2015,06,30,11,51,19.60
2015,06,30,11,52,19.60
2015,06,30,11,53,19.70
2015,06,30,11,54,19.70
2015,06,30,11,55,19.70
2015,06,30,11,56,19.80
2015,06,30,11,57,19.80
2015,06,30,11,58,19.70
2015,06,30,11,59,19.70
2015,06,30,12,00,19.70
2015,06,30,12,01,19.60
2015,06,30,12,02,19.60
2015,06,30,12,03,19.50
2015,06,30,12,04,19.60
2015,06,30,12,05,19.60
2015,06,30,12,06,19.60
2015,06,30,12,07,19.60
2015,06,30,12,08,19.70
2015,06,30,12,09,19.70
2015,06,30,12,10,19.70
2015,06,30,12,11,19.70
2015,06,30,12,12,19.60
2015,06,30,12,13,19.50
2015,06,30,12,14,19.50
2015,06,30,12,15,19.40
2015,06,30,12,16,19.50
2015,06,30,12,17,19.60
2015,06,30,12,18,19.70
2015,06,30,12,19,19.80
2015,06,30,12,20,19.90
2015,06,30,12,21,20.00
2015,06,30,12,22,20.10
2015,06,30,12,23,20.10
2015,06,30,12,24,20.10
2015,06,30,12,25,20.10
2015,06,30,12,26,20.10
2015,06,30,12,27,20.10
2015,06,30,12,28,20.20
2015,06,30,12,29,20.30
2015,06,30,12,30,20.40
2015,06,30,12,31,20.50
2015,06,30,12,32,20.60
2015,06,30,12,33,20.50
2015,06,30,12,34,20.50
2015,06,30,12,35,20.40
2015,06,30,12,36,20.40
2015,06,30,12,37,20.50
2015,06,30,12,38,20.50
2015,06,30,12,39,20.40
2015,06,30,12,40,20.30
2015,06,30,12,41,20.30
2015,06,30,12,42,20.20
2015,06,30,12,43,20.20
2015,06,30,12,44,20.30
2015,06,30,12,45,20.30
2015,06,30,12,46,20.20
2015,06,30,12,47,20.10
2015,06,30,12,48,20.10
2015,06,30,12,49,20.10
2015,06,30,12,50,20.10
2015,06,30,12,51,20.00
2015,06,30,12,52,19.90
2015,06,30,12,53,19.90
2015,06,30,12,54,19.90
2015,06,30,12,55,19.90
2015,06,30,12,56,19.80
2015,06,30,12,57,19.70
2015,06,30,12,58,19.40
2015,06,30,12,59,19.20
2015,06,30,13,00,18.90
2015,06,30,13,01,18.80
2015,06,30,13,02,18.80
2015,06,30,13,03,18.90
2015,06,30,13,04,19.00
2015,06,30,13,05,19.00
2015,06,30,13,06,19.00
2015,06,30,13,07,19.10
2015,06,30,13,08,19.10
2015,06,30,13,09,19.20
2015,06,30,13,10,19.20
2015,06,30,13,11,19.20
2015,06,30,13,12,19.30
2015,06,30,13,13,19.20
2015,06,30,13,14,19.10
2015,06,30,13,15,19.10
2015,06,30,13,16,19.00
2015,06,30,13,17,19.00
2015,06,30,13,18,19.00
2015,06,30,13,19,19.00
2015,06,30,13,20,19.00
2015,06,30,13,21,18.90
2015,06,30,13,22,18.90
2015,06,30,13,23,18.80
2015,06,30,13,24,18.60
2015,06,30,13,25,18.50
2015,06,30,13,26,18.40
2015,06,30,13,27,18.30
2015,06,30,13,28,18.20
2015,06,30,13,29,18.20
2015,06,30,13,30,18.20
2015,06,30,13,31,18.10
2015,06,30,13,32,18.00
2015,06,30,13,33,17.90
2015,06,30,13,34,17.70
2015,06,30,13,35,17.60
2015,06,30,13,36,17.50
2015,06,30,13,37,17.50
2015,06,30,13,38,17.50
2015,06,30,13,39,17.50
2015,06,30,13,40,17.50
2015,06,30,13,41,17.50
2015,06,30,13,42,17.60
2015,06,30,13,43,17.50
2015,06,30,13,44,17.40
2015,06,30,13,45,17.30
2015,06,30,13,46,17.20
2015,06,30,13,47,17.00
2015,06,30,13,48,16.90
2015,06,30,13,49,16.90
2015,06,30,13,50,16.80
2015,06,30,13,51,16.70
2015,06,30,13,52,16.70
2015,06,30,13,53,16.70
2015,06,30,13,54,16.70
2015,06,30,13,55,16.60
2015,06,30,13,56,16.60
2015,06,30,13,57,16.60
2015,06,30,13,58,16.50
2015,06,30,13,59,16.50
2015,06,30,14,00,16.40
2015,06,30,14,01,16.30
2015,06,30,14,02,16.20
2015,06,30,14,03,16.10
2015,06,30,14,04,16.00
2015,06,30,14,05,15.90
2015,06,30,14,06,15.90
2015,06,30,14,07,16.00
2015,06,30,14,08,16.10
2015,06,30,14,09,16.10
2015,06,30,14,10,16.10
2015,06,30,14,11,16.00
2015,06,30,14,12,16.00
2015,06,30,14,13,15.90
2015,06,30,14,14,15.90
2015,06,30,14,15,16.00
2015,06,30,14,16,16.10
2015,06,30,14,17,16.10
2015,06,30,14,18,16.10
2015,06,30,14,19,16.00
2015,06,30,14,20,15.80
2015,06,30,14,21,15.80
2015,06,30,14,22,15.70
2015,06,30,14,23,15.50
2015,06,30,14,24,15.40
2015,06,30,14,25,15.30
2015,06,30,14,26,15.20
2015,06,30,14,27,15.10
2015,06,30,14,28,15.10
2015,06,30,14,29,15.10
2015,06,30,14,30,15.10
2015,06,30,14,31,15.20
2015,06,30,14,32,15.30
2015,06,30,14,33,15.30
2015,06,30,14,34,15.30
2015,06,30,14,35,15.40
2015,06,30,14,36,15.40
2015,06,30,14,37,15.40
2015,06,30,14,38,15.50
2015,06,30,14,39,15.60
2015,06,30,14,40,15.70
2015,06,30,14,41,15.80
2015,06,30,14,42,16.00
2015,06,30,14,43,16.00
2015,06,30,14,44,16.00
2015,06,30,14,45,16.00
2015,06,30,14,46,16.00
2015,06,30,14,47,16.00
2015,06,30,14,48,16.10
2015,06,30,14,49,16.20
2015,06,30,14,50,16.30
2015,06,30,14,51,16.30
2015,06,30,14,52,16.50
2015,06,30,14,53,16.50
2015,06,30,14,54,16.50
2015,06,30,14,55,16.60
2015,06,30,14,56,16.70
2015,06,30,14,57,16.70
2015,06,30,14,58,16.70
2015,06,30,14,59,16.70
2015,06,30,15,00,16.80
2015,06,30,15,01,16.80
2015,06,30,15,02,16.80
2015,06,30,15,03,16.90
2015,06,30,15,04,17.00
2015,06,30,15,05,17.00
2015,06,30,15,06,16.90
2015,06,30,15,07,16.90
2015,06,30,15,08,16.90
2015,06,30,15,09,16.90
2015,06,30,15,10,16.90
2015,06,30,15,11,16.90
2015,06,30,15,12,17.00
2015,06,30,15,13,17.00
2015,06,30,15,14,17.00
2015,06,30,15,15,17.00
2015,06,30,15,16,16.90
2015,06,30,15,17,16.80
2015,06,30,15,18,16.70
2015,06,30,15,19,16.70
2015,06,30,15,20,16.60
2015,06,30,15,21,16.50
2015,06,30,15,22,16.50
2015,06,30,15,23,16.50
2015,06,30,15,24,16.30
2015,06,30,15,25,16.30
2015,06,30,15,26,16.30
2015,06,30,15,27,16.30
2015,06,30,15,28,16.20
2015,06,30,15,29,16.10
2015,06,30,15,30,16.10
2015,06,30,15,31,16.00
2015,06,30,15,32,16.00
2015,06,30,15,33,16.10
2015,06,30,15,34,16.10
2015,06,30,15,35,16.20
2015,06,30,15,36,16.20
2015,06,30,15,37,16.20
2015,06,30,15,38,16.20
2015,06,30,15,39,16.20
2015,06,30,15,40,16.20
2015,06,30,15,41,16.20
2015,06,30,15,42,16.20
2015,06,30,15,43,16.20
2015,06,30,15,44,16.20
2015,06,30,15,45,16.20
2015,06,30,15,46,16.10
2015,06,30,15,47,16.10
2015,06,30,15,48,16.10
2015,06,30,15,49,16.00
2015,06,30,15,50,16.00
2015,06,30,15,51,16.00
2015,06,30,15,52,16.00
2015,06,30,15,53,16.00
2015,06,30,15,54,16.10
2015,06,30,15,55,16.10
2015,06,30,15,56,16.20
2015,06,30,15,57,16.20
2015,06,30,15,58,16.30
2015,06,30,15,59,16.40
2015,06,30,16,00,16.40
2015,06,30,16,01,16.40
2015,06,30,16,02,16.40
2015,06,30,16,03,16.40
2015,06,30,16,04,16.40
2015,06,30,16,05,16.40
2015,06,30,16,06,16.40
2015,06,30,16,07,16.40
2015,06,30,16,08,16.40
2015,06,30,16,09,16.40
2015,06,30,16,10,16.40
2015,06,30,16,11,16.40
2015,06,30,16,12,16.30
2015,06,30,16,13,16.10
2015,06,30,16,14,16.10
2015,06,30,16,15,16.00
2015,06,30,16,16,16.00
2015,06,30,16,17,16.10
2015,06,30,16,18,16.20
2015,06,30,16,19,16.20
2015,06,30,16,20,16.20
2015,06,30,16,21,16.20
2015,06,30,16,22,16.20
2015,06,30,16,23,16.30
2015,06,30,16,24,16.30
2015,06,30,16,25,16.30
2015,06,30,16,26,16.30
2015,06,30,16,27,16.30
2015,06,30,16,28,16.20
2015,06,30,16,29,16.20
2015,06,30,16,30,16.20
2015,06,30,16,31,16.20
2015,06,30,16,32,16.20
2015,06,30,16,33,16.20
2015,06,30,16,34,16.30
2015,06,30,16,35,16.30
2015,06,30,16,36,16.40
2015,06,30,16,37,16.40
2015,06,30,16,38,16.40
2015,06,30,16,39,16.30
2015,06,30,16,40,16.20
2015,06,30,16,41,16.10
2015,06,30,16,42,16.10
2015,06,30,16,43,16.20
2015,06,30,16,44,16.20
2015,06,30,16,45,16.20
2015,06,30,16,46,16.20
2015,06,30,16,47,16.20
2015,06,30,16,48,16.20
2015,06,30,16,49,16.30
2015,06,30,16,50,16.30
2015,06,30,16,51,16.20
2015,06,30,16,52,16.20
2015,06,30,16,53,16.20
2015,06,30,16,54,16.30
2015,06,30,16,55,16.30
2015,06,30,16,56,16.30
2015,06,30,16,57,16.30
2015,06,30,16,58,16.40
2015,06,30,16,59,16.50
2015,06,30,17,00,16.60
2015,06,30,17,01,16.60
2015,06,30,17,02,16.70
2015,06,30,17,03,16.70
2015,06,30,17,04,16.70
2015,06,30,17,05,16.70
2015,06,30,17,06,16.80
2015,06,30,17,07,16.80
2015,06,30,17,08,16.90
2015,06,30,17,09,16.90
2015,06,30,17,10,16.90
2015,06,30,17,11,17.00
2015,06,30,17,12,17.00
2015,06,30,17,13,17.00
2015,06,30,17,14,17.00
2015,06,30,17,15,17.20
2015,06,30,17,16,17.30
2015,06,30,17,17,17.40
2015,06,30,17,18,17.50
2015,06,30,17,19,17.60